sat.trackr.live / text

‹ back to catalog

STARLINK-35541

NORAD 66235 · 2025-245B

PAYLOAD ACTIVE UNKNOWN

§ Identity

Operator
Country
US
Launch date
2025-10-29
Launch site
AFETR
Launch vehicle
Mass (kg)
RCS (m²)

Purposes: comms

External: N2YO · Heavens-Above · Gunter

§ Orbital elements

Epoch: 2026-09-20T06:29:02.930784Z

Period
94.01 min
Inclination
53.1581°
Eccentricity
0.0001573
Mean motion
15.31708155 rev/d
Perigee alt
469.6 km
Apogee alt
471.8 km
Semi-major
6,848.9 km
B*
3.3466e-4
RAAN
98.9577°
Arg perigee
91.0398°
Mean anomaly
269.0784°
Rev number
5,101

§ Raw data

STARLINK-355411 66235U 25245B   26263.27017281  .00010036  00000+0  33466-3 0  99912 66235  53.1581  98.9577 0001573  91.0398 269.0784 15.31708155 51017

JSON: /api/v1/satellites/66235 · /tle

For live sub-satellite position, see the globe view (requires WebGL).

§ Visibility from observer

Set your observer location to see the next 7 days of passes ≥ 10°. The values pass through the URL so the page stays shareable.

No JS? Fill the form by hand. The geolocation button needs JavaScript.